Regional Weather Roundup
Issued by NWS

Home | Current Version | Previous Version | Graphics & Text | Print | Product List | Glossary On
Versions: 1 2 3 4 5 6 7 8 9 10 11 12 13 14 15 16 17 18 19 20 21 22 23 24 25 26 27 28 29 30 31 32 33 34 35 36 37 38 39 40 41 42 43 44 45 46 47 48 49 50
708
ASUS45 KSLC 032110
RWRUT

UTAH REGIONAL WEATHER ROUNDUP
NATIONAL WEATHER SERVICE SALT LAKE CITY UT
200 PM MST SAT DEC 03 2016

UTZ001>011-023>025-032200-

NORTHERN UTAH

CITY           SKY/WX    TMP DP  RH WIND       PRES   REMARKS
BRIGHAM CITY     N/A     34  22  61 SW8       30.26F WCI  27
HILL AFB       CLOUDY    31  20  66 SW6       30.24F WCI  25
LOGAN          CLOUDY   N/A N/A N/A N3        30.23F
OGDEN          CLOUDY    32  21  64 S8        30.25F WCI  25
SALT LAKE CITY CLOUDY    34  20  56 S8        30.26F WCI  27
TOOELE VALLEY  CLOUDY    34  23  64 CALM      30.27F
WENDOVER       SUNNY     37  16  41 E3        30.25F
HEBER CITY     CLOUDY    28  16  59 CALM      30.21F
WEST JORDAN    CLOUDY    31  25  76 S8        30.26F WCI  24

$$

UTZ011>015-024>027-032200-

CENTRAL/NORTHEAST UTAH

CITY           SKY/WX    TMP DP  RH WIND       PRES   REMARKS
PROVO AIRPORT  CLOUDY    31  19  61 CALM      30.29F
MOAB/CANYONLAN SUNNY     38  15  39 SW6       30.15F WCI  33
DELTA          MOSUNNY   34  19  55 E5        30.26F WCI  30
PRICE          SUNNY     38  12  34 NW15G28   30.14S WCI  29
RICHFIELD      SUNNY     34  14  44 NE6       30.24S WCI  29
ROOSEVELT      SUNNY     32  12  43 E3        30.17F
VERNAL         SUNNY     32  14  47 VRB3      30.15F

$$

UTZ013>016-019>022-027-032200-

SOUTHERN UTAH

CITY           SKY/WX    TMP DP  RH WIND       PRES   REMARKS
BRYCE CANYON   NOT AVBL
CEDAR CITY     SUNNY     41  11  29 N8        30.18F
MILFORD        SUNNY     38  16  40 N12       30.23F WCI  30
ST GEORGE      MOCLDY    46  14  27 CALM      30.21F
HANKSVILLE     SUNNY     41  10  28 NW3       30.19F
KANAB          SUNNY     48   7  18 E5        30.16F
BLANDING       SUNNY     43  12  28 W3        30.16F

$$

REGIONAL REPORTS     COLORADO/ARIZONA

CITY           SKY/WX    TMP DP  RH WIND       PRES   REMARKS
CRAIG, CO      CLOUDY    28  11  48 E5        30.12F WCI  23
GRAND JUNCTION SUNNY     39  19  44 CALM      30.15F
RIFLE, CO      CLOUDY    32  17  54 W6        30.16S WCI  26
MONTROSE, CO   SUNNY     34  18  52 CALM      30.14F
CORTEZ, CO     SUNNY     41  21  44 W14       30.06F
COLORADO CITY    N/A     46  14  27 N7        30.17F
PAGE, AZ       SUNNY     43   9  24 NW3       30.15F
GRAND CANYON   SUNNY     39  13  34 NE8       30.11F WCI  33
KINGMAN, AZ    SUNNY     51   8  17 N14       30.11F
FLAGSTAFF, AZ  SUNNY     40  17  39 E15G24    30.06F WCI  32

$$

REGIONAL REPORTS    NEVADA/IDAHO/WYOMING

CITY           SKY/WX    TMP DP  RH WIND       PRES   REMARKS
LAS VEGAS, NV  MOSUNNY   55   5  13 E7        30.16F
ELY, NY        SUNNY     39  14  36 N8        30.22F WCI  33
ELKO, NV       SUNNY     37  13  37 W12       30.29S WCI  29
POCATELLO, ID  CLOUDY    33  23  66 S13       30.20S WCI  24
BURLEY, ID     MOSUNNY   41  26  55 W17G28    30.19F
FORT BRIDGER,    N/A     29  17  61 W28G36    30.12F WCI  13
EVANSTON, WY   CLOUDY    25  12  58 SW17      30.14F WCI  12
ROCK SPRINGS,  CLOUDY    24  15  68 W23       30.07F WCI   9

$$




USA.gov is the U.S. government's official web portal to all federal, state and local government web resources and services.